Weather History for Philip, SD

Change the Weather History Date:

Wednesday, August 1, 2012

  Actual Average Record
Temperature  
Mean Temperature 82 °F 76 °F  
Max Temperature 102 °F 91 °F 107 °F (1955)
Min Temperature 61 °F 61 °F 45 °F (1968)
Degree Days  
Heating Degree Days 0 0  
Month to date heating degree days 0 0  
Since 1 June heating degree days 11 71  
Since 1 July heating degree days 0 8  
Cooling Degree Days 17 11  
Month to date cooling degree days 17 11  
Year to date cooling degree days 843 466  
Since 1 June cooling degree days 786 439  
Growing Degree Days 32 (Base 50)    
Moisture  
Dew Point 56 °F    
Average Humidity 45    
Maximum Humidity 67    
Minimum Humidity 23    
Precipitation  
Precipitation 0.04 in 0.06 in 2.21 in (1953)
Month to date precipitation 0.04 0.06  
Year to date precipitation 5.63 11.94  
Sea Level Pressure  
Sea Level Pressure 29.82 in    
Wind  
Wind Speed 10 mph (NNE)    
Max Wind Speed 33 mph    
Max Gust Speed 41 mph    
Visibility 10 miles    
Events      
T = Trace of Precipitation, MM = Missing Value Source: NWS Daily Summary

Daily Weather History Graph

Daily Weather History Graph

Search for Another Location

Airport:

Trip Planner

Search our weather history database for the weather conditions in past years. The results will help you decide how hot, cold, wet, or windy it might be!

Date:

Astronomy

Aug. 01, 2012 Rise Set
Actual Time 5:35 AM MDT 8:09 PM MDT
Civil Twilight 5:02 AM MDT 8:42 PM MDT
Nautical Twilight 4:20 AM MDT 9:23 PM MDT
Astronomical Twilight 3:33 AM MDT 10:10 PM MDT
Moon 7:38 PM MDT (8/1) 5:07 AM MDT (8/1)
Length of Visible Light 15h 40m
Length of Day
14h 34m
Full, 100% of the Moon is Illuminated
Aug 1
Full
Aug 1
Full
Aug 9
Last Quarter
Aug 17
New
Aug 24
First Quarter

Hourly Weather History & Observations

Time (MDT) Temp. Heat Index Dew Point Humidity Pressure Visibility Wind Dir Wind Speed Gust Speed Precip Events Conditions
12:55 AM 73.0 °F - 50.0 °F 44% 29.80 in 10.0 mi NNW 3.5 mph - N/A   Clear
1:55 AM 69.1 °F - 52.0 °F 54% 29.79 in 10.0 mi NNW 6.9 mph - N/A   Clear
2:55 AM 68.0 °F - 51.1 °F 55% 29.80 in 10.0 mi South 5.8 mph - N/A   Clear
3:55 AM 66.9 °F - 50.0 °F 54% 29.81 in 10.0 mi West 5.8 mph - N/A   Clear
4:55 AM 63.0 °F - 50.0 °F 63% 29.81 in 10.0 mi West 5.8 mph - N/A   Clear
5:55 AM 63.0 °F - 51.1 °F 65% 29.83 in 10.0 mi WNW 3.5 mph - N/A   Clear
6:55 AM 70.0 °F - 51.1 °F 51% 29.82 in 10.0 mi West 4.6 mph - N/A   Clear
7:55 AM 80.1 °F - 51.1 °F 36% 29.81 in 10.0 mi Calm Calm - N/A   Clear
8:55 AM 89.1 °F 87.1 °F 55.0 °F 31% 29.79 in 10.0 mi SSE 5.8 mph - N/A   Clear
9:55 AM 93.0 °F 91.4 °F 55.9 °F 29% 29.78 in 10.0 mi Calm Calm - N/A   Clear
10:55 AM 95.0 °F 93.4 °F 55.9 °F 27% 29.79 in 10.0 mi Calm Calm - N/A   Clear
11:55 AM 98.1 °F 96.4 °F 55.9 °F 24% 29.77 in 10.0 mi East 4.6 mph - N/A   Clear
12:55 PM 100.0 °F 98.3 °F 55.0 °F 22% 29.76 in 10.0 mi North 12.7 mph - N/A   Clear
1:55 PM 93.0 °F 93.0 °F 61.0 °F 34% 29.75 in 10.0 mi NNE 26.5 mph 32.2 mph N/A   Clear
2:55 PM 81.0 °F 83.8 °F 68.0 °F 65% 29.83 in 10.0 mi North 15.0 mph 23.0 mph 0.04 in   Scattered Clouds
3:24 PM 84.2 °F 86.6 °F 66.2 °F 55% 29.86 in 10.0 mi ENE 27.6 mph 35.7 mph N/A   Clear
3:55 PM 84.0 °F 86.3 °F 66.0 °F 55% 29.79 in 10.0 mi East 24.2 mph 31.1 mph N/A   Clear
4:55 PM 84.0 °F 83.8 °F 59.0 °F 43% 29.80 in 10.0 mi East 17.3 mph - N/A   Clear
5:55 PM 86.0 °F 85.7 °F 60.1 °F 41% 29.81 in 10.0 mi NNE 19.6 mph 25.3 mph N/A   Clear
6:09 PM 82.4 °F 82.9 °F 60.8 °F 48% 29.89 in 10.0 mi NE 19.6 mph - N/A   Clear
6:55 PM 80.1 °F 81.5 °F 63.0 °F 56% 29.84 in 10.0 mi NE 19.6 mph - N/A   Clear
7:55 PM 75.9 °F - 60.1 °F 58% 29.86 in 10.0 mi NE 15.0 mph - N/A   Clear
8:55 PM 72.0 °F - 55.9 °F 57% 29.88 in 10.0 mi NE 9.2 mph - N/A   Clear
9:55 PM 70.0 °F - 53.1 °F 55% 29.89 in 10.0 mi ENE 9.2 mph - N/A   Clear
10:55 PM 66.9 °F - 52.0 °F 59% 29.90 in 10.0 mi NNE 6.9 mph - N/A   Clear
11:55 PM 64.0 °F - 54.0 °F 70% 29.90 in 10.0 mi NNE 6.9 mph - N/A   Clear